Gillette, WY

3:55 PM MST on November 23, 2017 (GMT -0700)
Gillette-Campbell County

Weather History for KGCC - January, 2012

Change the Weather History Date:

Saturday, January 7, 2012

  Actual Average Record
Temperature  
Mean Temperature 28 °F 26 °F  
Max Temperature 38 °F 37 °F 42 °F (2015)
Min Temperature 17 °F 14 °F -11 °F (2017)
Degree Days  
Heating Degree Days 37 39  
Month to date heating degree days 230 278  
Since 1 July heating degree days 3054 3419  
Cooling Degree Days 0 0  
Month to date cooling degree days 0 0  
Year to date cooling degree days 0 0  
Moisture  
Dew Point 17 °F    
Average Humidity 68    
Maximum Humidity 92    
Minimum Humidity 44    
Precipitation  
Precipitation 0.00 in 0.01 in 0.01 in (2015)
Month to date precipitation 0.00 0.07  
Year to date precipitation 0.00 0.07  
Sea Level Pressure  
Sea Level Pressure 30.15 in    
Wind  
Wind Speed 4 mph (WSW)    
Max Wind Speed 12 mph    
Max Gust Speed 14 mph    
Visibility 10 miles    
Events      
T = Trace of Precipitation, MM = Missing Value Source: NWS Daily Summary

Daily Weather History Graph

Daily Weather History Graph

Search for Another Location

Airport or City:

Trip Planner

Search our weather history database for the weather conditions in past years. The results will help you decide how hot, cold, wet, or windy it might be!

Date:

Astronomy

Jan. 07, 2012 Rise Set
Actual Time 7:37 AM MST 4:39 PM MST
Civil Twilight 7:04 AM MST 5:11 PM MST
Nautical Twilight 6:28 AM MST 5:48 PM MST
Astronomical Twilight 5:53 AM MST 6:23 PM MST
Moon 3:25 PM MST (1/7) 6:12 AM MST (1/7)
Length of Visible Light 10h 07m
Length of Day
9h 01m
Waxing Gibbous, 98% of the Moon is Illuminated
Jan 7
Waxing Gibbous
Jan 9
Full
Jan 16
Last Quarter
Jan 23
New
Jan 30
First Quarter

Hourly Weather History & Observations

Time (MST) Temp. Windchill Dew Point Humidity Pressure Visibility Wind Dir Wind Speed Gust Speed Precip Events Conditions
12:53 AM 27.0 °F - 18.0 °F 69% 30.07 in 10.0 mi Calm Calm - N/A   Overcast
1:53 AM 27.0 °F 19.5 °F 18.0 °F 69% 30.06 in 10.0 mi South 6.9 mph - N/A   Partly Cloudy
2:53 AM 26.1 °F - 17.1 °F 69% 30.06 in 10.0 mi Calm Calm - N/A   Clear
3:53 AM 25.0 °F - 17.1 °F 72% 30.05 in 10.0 mi Calm Calm - N/A   Partly Cloudy
4:53 AM 21.9 °F 14.5 °F 19.9 °F 92% 30.10 in 10.0 mi SSE 5.8 mph - N/A   Clear
5:53 AM 25.0 °F - 18.0 °F 75% 30.12 in 10.0 mi Calm Calm - N/A   Partly Cloudy
6:53 AM 26.1 °F - 17.1 °F 69% 30.12 in 10.0 mi Calm Calm - N/A   Overcast
7:53 AM 26.1 °F 19.4 °F 17.1 °F 69% 30.12 in 10.0 mi South 5.8 mph - N/A   Overcast
8:53 AM 27.0 °F 21.6 °F 17.1 °F 66% 30.14 in 10.0 mi South 4.6 mph - N/A   Clear
9:53 AM 33.1 °F 30.0 °F 16.0 °F 50% 30.14 in 10.0 mi South 3.5 mph - N/A   Mostly Cloudy
10:53 AM 33.1 °F 30.0 °F 19.0 °F 56% 30.15 in 10.0 mi NE 3.5 mph - N/A   Clear
11:53 AM 37.0 °F - 18.0 °F 46% 30.11 in 10.0 mi Calm Calm - N/A   Clear
12:53 PM 37.9 °F 32.7 °F 18.0 °F 45% 30.10 in 10.0 mi NW 6.9 mph - N/A   Clear
1:53 PM 37.9 °F 32.1 °F 18.0 °F 45% 30.10 in 10.0 mi NNW 8.1 mph - N/A   Clear
2:53 PM 37.0 °F 31.6 °F 18.0 °F 46% 30.12 in 10.0 mi NNW 6.9 mph - N/A   Clear
3:53 PM 34.0 °F 28.8 °F 19.9 °F 56% 30.16 in 10.0 mi North 5.8 mph - N/A   Clear
4:53 PM 23.0 °F 17.0 °F 18.0 °F 81% 30.22 in 10.0 mi NW 4.6 mph - N/A   Clear
5:53 PM 25.0 °F 15.5 °F 19.0 °F 78% 30.22 in 10.0 mi West 9.2 mph - N/A   Clear
6:53 PM 23.0 °F 13.1 °F 18.0 °F 81% 30.24 in 10.0 mi West 9.2 mph - N/A   Clear
7:53 PM 21.0 °F - 16.0 °F 81% 30.25 in 10.0 mi Calm Calm - N/A   Clear
8:53 PM 19.0 °F 13.9 °F 15.1 °F 85% 30.25 in 10.0 mi WSW 3.5 mph - N/A   Clear
9:53 PM 17.1 °F 11.7 °F 14.0 °F 88% 30.24 in 10.0 mi SSW 3.5 mph - N/A   Clear
10:53 PM 18.0 °F 11.1 °F 14.0 °F 84% 30.24 in 10.0 mi SW 4.6 mph - N/A   Clear
11:53 PM 18.0 °F - 14.0 °F 84% 30.22 in 10.0 mi Calm Calm - N/A   Clear